[[{"header":{"parameterUnit":"m.s-1","parameterCategory":1,"la1":30.2991,"la2":30.254,"lo1":-89.0895,"lo2":-89.0444,"dy":0.0017,"dx":0.0017,"nx":28,"ny":28,"refTime":"2024-08-14T21:00:00:Z","depth":0,"parameterNumber":2,"parameterNumberName":"U-component_of_WINDS"},"data":[0,0,0,0,0,0,0,0,0,0,0,0,0,0,0,0,0,0,0,0,0,0,0,0,0,0,0,0,0,0,0,0,0,0,0,0,0,0,0,0,0,0,0,0,0,0,0,0,0,0,0,0,0,0,0,0,0,0,0.2416,0.2416,0,0.2451,0.2451,0.2451,0.2466,0.2466,0.2466,0.2466,0.2505,0.2506,0.2507,0,0,0,0,0,0,0,0,0,0,0,0,0,0.2365,0.2366,0.2416,0.2416,0.2417,0.2451,0.2451,0.2452,0.2466,0.2466,0.2466,0.2466,0.2505,0.2506,0.2507,0,0,0,0,0,0,0,0,0,0,0,0,0,0.2392,0.2366,0.2416,0.2428,0.2429,0.245,0.2451,0.2452,0.2466,0.2466,0.2466,0.2466,0.2504,0.2506,0.2507,0.252,0,0,0.2513,0.2513,0,0,0,0,0,0,0,0,0.239,0.2394,0.2426,0.2427,0.2429,0.2454,0.2447,0.2475,0.2466,0.2452,0.2466,0.2466,0.2488,0.2491,0.2498,0.2522,0.2524,0.2513,0.2514,0.2514,0.2515,0,0,0,0,0,0,0,0.2389,0.2393,0.243,0.2426,0.2428,0.2433,0.2436,0.2453,0.2471,0.2453,0.2454,0.2458,0.2489,0.2496,0.2499,0.2524,0.2513,0.2514,0.2515,0.2516,0.256,0.256,0,0,0,0,0,0,0.2384,0.2391,0.2429,0.2431,0.2409,0.2434,0.2438,0.2446,0.247,0.2474,0.2458,0.2459,0.2494,0.2497,0.2501,0.2517,0.2514,0.2516,0.2517,0.256,0.256,0.256,0,0,0,0,0,0,0.2383,0.2387,0.2427,0.2411,0.2416,0.2435,0.2444,0.2447,0.2454,0.2474,0.2478,0.2462,0.2494,0.2498,0.2515,0.2519,0.2517,0.2518,0.256,0.256,0.256,0.255,0,0,0,0,0,0,0.2382,0.2387,0.2391,0.2411,0.2417,0.244,0.2444,0.2447,0.2456,0.2457,0.2479,0.2482,0.2494,0.2512,0.2517,0.2521,0.252,0.256,0.256,0.256,0.255,0.255,0.255,0,0,0,0,0,0.238,0.2388,0.2391,0.2396,0.2423,0.244,0.2444,0.2456,0.2457,0.2462,0.2474,0.2482,0.2517,0.2514,0.2519,0.2524,0.2559,0.256,0.256,0.255,0.255,0.255,0,0,0,0,0,0,0.237,0.2391,0.2395,0.241,0.2423,0.2443,0.2449,0.2455,0.247,0.247,0.2486,0.249,0.2506,0.2517,0.2512,0.2537,0.2539,0.254,0.253,0.253,0.2529,0.2527,0.2521,0,0,0,0,0,0.2369,0.238,0.2398,0.241,0.2416,0.2431,0.2439,0.2447,0.2462,0.2468,0.2482,0.2497,0.2512,0.2521,0.2536,0.2551,0.2557,0.2557,0.2557,0.2557,0.2558,0.2567,0.2567,0.2562,0.2562,0.2562,0,0,0.2368,0.2381,0.2387,0.2408,0.2419,0.2431,0.2436,0.2449,0.2458,0.2471,0.2487,0.2498,0.2515,0.2531,0.2539,0.2541,0.256,0.2557,0.2557,0.2558,0.2567,0.2568,0.2568,0.2562,0.2562,0.2562,0,0,0.2372,0.2383,0.2393,0.2404,0.242,0.243,0.2433,0.2452,0.2459,0.2475,0.2484,0.2496,0.2521,0.2533,0.2543,0.2551,0.2558,0.2555,0.2554,0.2563,0.2563,0.2564,0.2567,0.2567,0.2556,0.2556,0.2556,0,0.237,0.2387,0.2398,0.241,0.2419,0.2429,0.244,0.245,0.2471,0.2478,0.2479,0.2509,0.2522,0.2541,0.2543,0.255,0.2554,0.2553,0.2562,0.2563,0.2563,0.2566,0.2567,0.2556,0.2556,0.2556,0.2556,0,0.2383,0.2395,0.2401,0.2419,0.2429,0.244,0.2454,0.2463,0.247,0.248,0.2496,0.2512,0.2529,0.2535,0.2542,0.2555,0.2555,0.2559,0.2561,0.2563,0.2566,0.2567,0.2555,0.2555,0.2555,0.2555,0,0,0.2383,0.2406,0.2408,0.2416,0.2435,0.2445,0.2457,0.2473,0.248,0.2494,0.2504,0.2525,0.2528,0.2539,0.2548,0.2555,0.256,0.2558,0.2559,0.2558,0.2575,0.2572,0.2573,0.2565,0.2565,0.2565,0.2573,0,0.239,0.241,0.242,0.2437,0.2448,0.2458,0.2468,0.2481,0.2491,0.2503,0.2514,0.2528,0.2531,0.2538,0.2545,0.2558,0.2564,0.2557,0.2576,0.2576,0.2571,0.2575,0.2572,0.2579,0.2575,0.2575,0.2575,0,0.2401,0.2413,0.243,0.2447,0.2452,0.2461,0.2476,0.2487,0.2502,0.2508,0.252,0.2528,0.2542,0.2542,0.2562,0.2557,0.2565,0.2572,0.2573,0.2576,0.2576,0.2578,0.2582,0.2583,0.2577,0.2577,0.2577,0,0.2399,0.242,0.2433,0.244,0.2459,0.2465,0.2474,0.2488,0.2497,0.2511,0.2517,0.2532,0.2541,0.2553,0.2566,0.2565,0.2584,0.2585,0.259,0.259,0.2594,0.2594,0.26,0.2599,0.2599,0.2599,0.2599,0,0.2406,0.2416,0.2432,0.244,0.2452,0.2464,0.2476,0.2485,0.2498,0.2508,0.2518,0.2528,0.2544,0.2556,0.2566,0.2581,0.2585,0.2591,0.2593,0.259,0.2589,0.2596,0.2596,0.2599,0.2599,0.2599,0.2599,0,0.2407,0.2417,0.2432,0.2449,0.2453,0.2461,0.2476,0.2485,0.2494,0.2508,0.2511,0.2527,0.2542,0.2555,0.2575,0.2582,0.2597,0.26,0.2591,0.2593,0.2597,0.2596,0.2607,0.2609,0.2607,0.2607,0.2607,0,0.2411,0.2418,0.2435,0.2442,0.245,0.2462,0.2471,0.2482,0.2491,0.2508,0.2515,0.253,0.2542,0.2566,0.2579,0.2595,0.2599,0.2601,0.2601,0.2597,0.2599,0.2598,0.2599,0.2601,0.2601,0.2601,0.2601,0,0.2416,0.2421,0.2432,0.2445,0.2455,0.2466,0.2478,0.2483,0.2497,0.2507,0.2521,0.2531,0.255,0.2565,0.2582,0.2592,0.2599,0.2601,0.2603,0.26,0.2594,0.2598,0.2591,0.2601,0.2601,0.2601,0.2601,0.2601,0.2419,0.2426,0.2439,0.2451,0.2461,0.2471,0.248,0.249,0.2502,0.2518,0.2524,0.2539,0.2553,0.2576,0.2586,0.2598,0.2599,0.2602,0.2603,0.2604,0.2603,0.2592,0.2601,0.2601,0.2601,0.2601,0.2601,0,0.2425,0.2434,0.2445,0.246,0.247,0.2474,0.2487,0.2495,0.2507,0.2519,0.2531,0.2548,0.2562,0.2576,0.2592,0.2599,0.2602,0.2602,0.2602,0.2604,0.2601,0.2597,0.2599,0.2599,0.2599,0.2599,0.2599,0.2599,0.243,0.2442,0.2448,0.2466,0.2475,0.2488,0.2495,0.2505,0.2514,0.2532,0.2543,0.2552,0.2565,0.2581,0.2595,0.2599,0.2604,0.2603,0.2608,0.2605,0.2605,0.2605,0.2602,0.2604,0.2604,0.2611,0.2611,0.2611]},{"header":{"parameterUnit":"m.s-1","parameterCategory":1,"la1":30.2991,"la2":30.254,"lo1":-89.0895,"lo2":-89.0444,"dy":0.0017,"dx":0.0017,"nx":28,"ny":28,"refTime":"2024-08-14T21:00:00:Z","depth":0,"parameterNumber":3,"parameterNumberName":"V-component_of_WINDS"},"data":[0,0,0,0,0,0,0,0,0,0,0,0,0,0,0,0,0,0,0,0,0,0,0,0,0,0,0,0,0,0,0,0,0,0,0,0,0,0,0,0,0,0,0,0,0,0,0,0,0,0,0,0,0,0,0,0,0,0,1.3959,1.396,0,1.402,1.4021,1.4022,1.4017,1.4017,1.4016,1.4015,1.4074,1.4077,1.4079,0,0,0,0,0,0,0,0,0,0,0,0,0,1.3835,1.3837,1.3959,1.396,1.3961,1.402,1.4021,1.4022,1.4018,1.4017,1.4015,1.4014,1.4074,1.4076,1.4079,0,0,0,0,0,0,0,0,0,0,0,0,0,1.3892,1.3838,1.3959,1.3966,1.3967,1.402,1.4021,1.4022,1.4018,1.4017,1.4015,1.4014,1.4073,1.4076,1.408,1.4129,0,0,1.4091,1.4092,0,0,0,0,0,0,0,0,1.3888,1.3896,1.3964,1.3966,1.3967,1.401,1.3999,1.4058,1.4018,1.3999,1.4015,1.4013,1.4054,1.4059,1.4073,1.4131,1.4134,1.4091,1.4093,1.4095,1.4096,0,0,0,0,0,0,0,1.3885,1.3894,1.3983,1.3965,1.3967,1.3964,1.3971,1.401,1.4033,1.4,1.4,1.4007,1.4054,1.407,1.4074,1.4135,1.4091,1.4094,1.4096,1.4098,1.4232,1.4233,0,0,0,0,0,0,1.388,1.389,1.3981,1.3985,1.3924,1.3968,1.3975,1.3998,1.4032,1.4037,1.4008,1.4007,1.4064,1.407,1.4077,1.4133,1.4095,1.4098,1.41,1.4231,1.4232,1.4234,0,0,0,0,0,0,1.3877,1.3888,1.3979,1.3938,1.3949,1.3971,1.3996,1.3999,1.4015,1.4039,1.4042,1.402,1.4063,1.4071,1.4115,1.4135,1.41,1.4103,1.4229,1.4231,1.4233,1.4249,0,0,0,0,0,0,1.3873,1.3887,1.3907,1.3938,1.3951,1.4018,1.3998,1.4002,1.4021,1.402,1.4051,1.4055,1.4063,1.411,1.4119,1.414,1.4106,1.4227,1.423,1.4232,1.4246,1.4251,1.4255,0,0,0,0,0,1.3869,1.3909,1.3908,1.3919,1.3977,1.4019,1.4027,1.4036,1.4023,1.4042,1.4057,1.4054,1.4132,1.4114,1.4124,1.4147,1.4226,1.4229,1.4232,1.4244,1.425,1.4255,0,0,0,0,0,0,1.388,1.3914,1.3913,1.3965,1.3989,1.4018,1.4043,1.4042,1.407,1.4068,1.4078,1.4085,1.4127,1.4142,1.4121,1.4194,1.4177,1.4182,1.4183,1.4188,1.4193,1.4187,1.4109,0,0,0,0,0,1.3888,1.3921,1.3948,1.3991,1.4004,1.4021,1.404,1.4045,1.407,1.408,1.4099,1.4122,1.4152,1.4171,1.42,1.4249,1.4253,1.4269,1.4273,1.4276,1.428,1.4303,1.4309,1.4244,1.4244,1.4244,0,0,1.3906,1.3929,1.3949,1.3994,1.4013,1.4045,1.403,1.4065,1.4087,1.4085,1.4127,1.4141,1.4168,1.4213,1.4234,1.4226,1.4299,1.428,1.4283,1.4285,1.4307,1.4313,1.4319,1.4246,1.4246,1.4245,0,0,1.3954,1.3976,1.4012,1.4031,1.4061,1.4072,1.4081,1.411,1.4119,1.4161,1.4159,1.4186,1.4238,1.4255,1.4271,1.4323,1.4319,1.4332,1.4354,1.4376,1.4381,1.4386,1.4401,1.4407,1.4336,1.4336,1.4336,0,1.3972,1.402,1.4031,1.4065,1.4083,1.4083,1.4119,1.4137,1.4174,1.4186,1.4177,1.4239,1.4258,1.4306,1.4318,1.4332,1.434,1.4328,1.438,1.4385,1.4389,1.4404,1.441,1.4337,1.4337,1.4337,1.4337,0,1.4039,1.4072,1.4098,1.4133,1.4155,1.419,1.4203,1.4224,1.4226,1.4238,1.4278,1.43,1.4332,1.4344,1.4347,1.4391,1.4385,1.4378,1.4361,1.4396,1.441,1.4416,1.4339,1.4339,1.4338,1.4338,0,0,1.4096,1.4135,1.4144,1.4159,1.419,1.4215,1.4248,1.428,1.4295,1.4321,1.4347,1.4389,1.4382,1.44,1.4405,1.4425,1.446,1.4415,1.4416,1.442,1.4506,1.451,1.4516,1.4459,1.446,1.4461,1.4503,0,1.4144,1.4204,1.4213,1.4265,1.4294,1.4293,1.4322,1.4343,1.4354,1.4378,1.439,1.4419,1.4409,1.4419,1.4439,1.4452,1.4477,1.4449,1.4481,1.4482,1.4472,1.4524,1.4529,1.4567,1.4509,1.451,1.451,0,1.4209,1.4235,1.429,1.4315,1.4327,1.4353,1.438,1.4405,1.4428,1.4434,1.4453,1.4455,1.4487,1.4469,1.4512,1.4492,1.4506,1.4513,1.4515,1.4517,1.4497,1.4525,1.458,1.4585,1.452,1.4519,1.4518,0,1.4241,1.429,1.4328,1.4341,1.4372,1.4389,1.4402,1.4424,1.4441,1.4465,1.4475,1.4503,1.4517,1.4537,1.4545,1.4532,1.4586,1.457,1.459,1.4589,1.46,1.4599,1.4656,1.4612,1.4612,1.4612,1.4612,0,1.4293,1.4326,1.4343,1.4366,1.4401,1.4411,1.4445,1.4458,1.4476,1.45,1.4502,1.4524,1.4534,1.4558,1.4564,1.4596,1.4603,1.4608,1.4608,1.4606,1.4605,1.4614,1.461,1.4614,1.4613,1.4613,1.4613,0,1.4334,1.4347,1.4388,1.4413,1.442,1.4445,1.4465,1.4486,1.4497,1.4527,1.4534,1.455,1.4577,1.4588,1.4621,1.4625,1.4661,1.4661,1.4654,1.4653,1.4671,1.4669,1.4734,1.4742,1.4695,1.4696,1.4696,0,1.4365,1.439,1.4417,1.4434,1.4447,1.4474,1.4491,1.4501,1.4518,1.4544,1.4562,1.4589,1.4611,1.4654,1.4667,1.4691,1.469,1.4712,1.4694,1.469,1.4687,1.4685,1.4686,1.4714,1.4715,1.4715,1.4716,0,1.4418,1.4423,1.4448,1.4474,1.4495,1.4516,1.4537,1.455,1.4562,1.4581,1.4609,1.4626,1.4659,1.4685,1.4709,1.4721,1.4719,1.4721,1.4726,1.4723,1.4717,1.4718,1.466,1.4719,1.4719,1.4719,1.4718,1.4718,1.4453,1.4474,1.4496,1.4523,1.4539,1.4558,1.4578,1.4591,1.4614,1.4642,1.4646,1.4675,1.4694,1.4727,1.474,1.4761,1.4756,1.4764,1.4766,1.4767,1.4767,1.4715,1.4766,1.4766,1.4766,1.4766,1.4766,0,1.4504,1.4517,1.4542,1.457,1.4591,1.4589,1.4611,1.4627,1.4653,1.4672,1.4693,1.4723,1.4748,1.4762,1.4786,1.48,1.48,1.4806,1.4804,1.4806,1.4772,1.4764,1.4806,1.4806,1.4806,1.4806,1.4806,1.4806,1.4532,1.4566,1.4573,1.4614,1.4627,1.4656,1.4668,1.4685,1.4699,1.4733,1.4753,1.4763,1.4779,1.4804,1.4825,1.4829,1.4837,1.4843,1.4845,1.4813,1.4809,1.4805,1.4797,1.4845,1.4845,1.4877,1.4878,1.4878]}]]